Location: Alto Pass Reservoir
(37.5801°N, 89.3084°W)
Time: 12:04:02
(UTC+00:00)

NEOSSAT - Pass Details

Date: 29 September 2022
Orbit: 767 x 784 km, 98.4° (Epoch: 26 November)

Event Time Altitude Azimuth Distance (km) Brightness Sun altitude
Rises 01:09:05 0° 7° (N) 3,279 ? -17.5°
Reaches altitude 10° 01:11:27 10° 4° (N) 2,348 ? -17.9°
Maximum altitude 01:16:30 56° 287° (WNW) 928 ? -18.9°
Drops below altitude 10° 01:21:32 10° 210° (SSW) 2,334 ? -19.9°
Sets 01:23:53 0° 206° (SSW) 3,257 ? -20.3°
